Location: Newark
(48.0679°N, 114.0387°W)
Time: 16:14:51
(UTC+00:00)

ISS - Visible Passes

Search period start: 23 September 2019 00:00
Search period end: 03 October 2019 00:00
Orbit: 411 x 421 km, 51.6° (Epoch: 23 September)

Date Brightness Start Highest point End Pass type
(mag) Time Alt. Az. Time Alt. Az. Time Alt. Az.
23 Sep -3.9 03:07:06 10° WSW 03:10:25 84° SSE 03:11:28 41° ENE visible
23 Sep -0.4 04:44:09 10° WNW 04:44:22 11° WNW 04:44:22 11° WNW visible
24 Sep -3.7 02:18:42 10° SW 02:21:59 57° SSE 02:25:02 11° ENE visible
24 Sep -2.3 03:55:33 10° W 03:57:56 37° WNW 03:57:56 37° WNW visible
25 Sep -3.3 03:06:56 10° W 03:10:14 58° NNW 03:11:24 34° NE visible
25 Sep -0.3 04:44:05 10° WNW 04:44:18 11° WNW 04:44:18 11° WNW visible
26 Sep -3.7 02:18:22 10° WSW 02:21:42 75° NNW 02:24:48 11° ENE visible
26 Sep -2.0 03:55:31 10° WNW 03:57:42 32° NW 03:57:42 32° NW visible
27 Sep -2.9 03:06:53 10° W 03:10:06 44° N 03:11:02 34° NE visible
27 Sep -0.2 04:43:53 10° WNW 04:43:55 10° WNW 04:43:55 10° WNW visible
28 Sep -3.1 02:18:14 10° W 02:21:29 49° N 02:24:20 13° ENE visible
28 Sep -1.8 03:55:20 10° WNW 03:57:14 29° NW 03:57:14 29° NW visible
29 Sep -3.0 03:06:45 10° WNW 03:09:57 43° N 03:10:30 39° NE visible
30 Sep -2.9 02:18:06 10° WNW 02:21:19 42° N 02:23:46 15° ENE visible
30 Sep -1.6 03:55:01 10° WNW 03:56:39 26° WNW 03:56:39 26° WNW visible
01 Oct -3.5 03:06:27 10° WNW 03:09:44 55° NNE 03:09:55 54° NNE visible
02 Oct -3.2 02:17:51 10° WNW 02:21:06 47° N 02:23:10 19° ENE visible
02 Oct -1.4 03:54:38 10° WNW 03:56:03 23° WNW 03:56:03 23° WNW visible
